Simultaneous Nadir Overpasses (SNOs) Predictions

Prediction of SNOs between GOES-14 and NOAA-20 Satellite Orbit:

Table of predicted SNOs for the next 14.0 days since TLE Epoch: 9/10/2022
Index Date Time (GOES-14) GOES-14 Lat,Lon NOAA-20 Lat,Lon Distance(km) Time Diff (sec)
1 09/10/2022 20:39:24 -0.38,-104.53 -1.31,-108.76 481.35 80
2 09/11/2022 20:23:20 -0.38,-104.54 -0.31,-104.23 35.69 80
3 09/14/2022 08:26:24 0.37,-104.42 0.49,-104.97 62.68 80
4 09/15/2022 08:04:59 0.38,-104.40 -0.51,-100.44 451.78 80
5 09/16/2022 20:26:57 -0.36,-104.51 -0.66,-105.75 142.15 80
6 09/17/2022 20:10:53 -0.37,-104.51 0.39,-101.23 374.85 80
7 09/19/2022 08:32:41 0.34,-104.42 0.84,-106.49 236.71 80
8 09/20/2022 08:11:16 0.35,-104.40 -0.16,-101.96 277.66 80
9 09/21/2022 20:33:14 -0.33,-104.46 -0.94,-107.29 321.11 80
10 09/22/2022 20:17:10 -0.34,-104.47 0.06,-102.75 196.06 80
